Theta_e
326 328 337 338 341 336 335 335 337 338 333 330 332 334 337 345 348 352 349 350 347 346 348 348 349 340 328 329 328 326 320 317 321 325 318 328 331 334 337 339 341 340 340 341 341 341 336 336 336
320 330 334 336 333 336 333 334 335 333 330 330 332 334 337 347 347 348 349 347 345 345 349 347 348 344 330 330 331 330 324 335 334 327 318 316 333 337 337 341 340 339 339 339 340 340 334 335 336
315 330 334 337 333 330 332 332 332 328 328 330 331 333 340 347 347 347 349 347 346 346 349 344 348 344 334 335 334 333 330 341 337 333 321 316 323 334 337 340 339 337 336 335 337 336 331 333 333
326 328 330 333 333 331 328 331 327 325 327 329 330 331 345 345 347 348 349 343 344 347 351 344 348 345 336 343 340 336 341 342 337 336 333 317 320 333 334 337 337 333 331 333 331 332 332 331 329
330 333 334 330 329 328 328 328 324 324 323 325 326 328 344 342 347 346 348 341 342 344 350 342 347 342 341 342 345 339 332 339 339 335 333 321 318 332 331 333 334 332 331 334 334 332 328 327 333
329 325 329 329 329 326 325 326 322 322 322 322 322 324 340 341 344 347 348 342 340 343 347 347 343 346 338 339 340 342 336 334 338 337 333 324 322 329 330 330 332 332 333 333 335 336 335 335 338
329 330 327 324 324 324 323 322 322 322 323 323 322 322 335 336 340 345 347 347 342 341 346 346 345 343 342 340 339 342 339 337 337 338 334 330 327 333 334 333 331 333 332 333 335 336 337 335 336
326 326 324 324 323 325 323 322 321 321 322 322 322 322 328 329 332 338 346 344 346 344 343 343 346 343 346 341 340 341 341 339 335 336 335 335 325 332 334 333 330 331 330 332 333 335 335 334 335
323 328 326 326 325 325 322 321 321 322 321 321 322 321 322 323 324 331 340 340 338 343 344 344 344 342 344 345 341 342 342 340 337 335 336 337 328 331 333 333 330 330 330 328 332 333 334 333 333
324 327 327 323 322 323 322 321 321 322 322 321 321 322 322 322 323 325 333 334 338 338 341 343 343 341 340 343 344 342 341 341 338 335 334 338 333 330 331 331 331 333 332 327 326 332 334 334 332
324 325 324 322 321 321 321 321 321 321 323 323 323 323 322 322 323 322 322 324 326 331 335 338 340 342 339 339 340 339 341 340 339 337 334 337 335 335 334 334 328 332 333 325 329 331 330 328 330
323 322 322 321 322 321 322 321 323 322 322 323 324 322 322 322 322 323 323 322 323 323 325 333 336 338 341 339 338 338 337 336 335 337 335 333 334 335 334 335 329 330 334 327 328 330 331 333 328
323 322 321 321 322 322 322 323 323 323 323 323 323 323 323 323 322 323 323 323 323 323 323 323 336 337 338 339 339 337 335 334 335 335 331 328 326 328 333 336 333 333 332 330 327 329 328 329 327
322 323 323 323 322 323 323 323 322 322 323 322 323 323 323 323 323 323 323 322 322 322 323 322 323 332 337 340 338 337 335 334 333 334 331 325 326 325 324 326 336 334 333 330 329 326 325 326 326
321 322 322 322 322 322 322 323 322 322 322 322 323 323 323 323 323 323 322 322 322 322 321 322 323 323 328 335 337 336 335 334 334 334 332 323 324 320 322 325 333 333 331 329 326 325 326 326 324
322 322 323 322 321 322 322 321 321 322 322 323 323 322 323 323 323 322 322 322 322 322 322 322 322 322 321 322 333 337 335 334 333 333 332 331 327 325 325 323 329 332 331 330 324 324 326 324 324
323 322 322 323 322 321 321 322 321 323 323 323 322 322 322 322 322 322 322 322 322 322 321 322 322 322 323 324 329 335 335 333 334 333 332 330 331 328 329 323 329 332 329 323 317 321 324 323 323
324 323 322 321 320 320 319 319 319 319 322 322 322 322 322 322 322 322 322 322 322 322 322 322 322 323 323 326 333 332 333 332 332 333 333 328 331 331 327 326 331 331 326 322 321 323 323 323 323
322 322 322 322 321 319 318 318 318 319 321 323 323 323 323 322 323 323 323 322 323 322 321 322 322 322 323 328 331 332 331 330 331 332 331 332 332 332 327 331 331 330 325 323 321 323 323 323 322
322 322 322 321 321 319 318 318 318 318 320 321 322 323 322 323 324 323 323 323 325 324 323 322 321 322 323 328 331 329 329 329 330 331 330 330 331 332 329 332 331 329 326 324 322 322 322 322 321
322 321 320 320 321 319 317 318 318 320 321 323 322 322 323 324 323 323 323 323 324 324 325 325 324 323 324 327 329 328 329 330 330 329 330 329 331 332 331 331 331 327 324 323 322 322 322 320 320
322 321 321 321 320 318 320 319 318 322 322 322 322 322 325 323 323 323 323 323 323 325 326 326 327 325 327 327 327 329 328 329 328 329 331 331 330 332 332 331 330 326 323 323 316 321 321 320 318
320 320 320 320 319 318 319 318 320 322 323 321 320 323 324 323 323 323 323 324 324 325 326 327 327 327 328 326 327 328 328 328 326 326 327 327 330 330 331 328 327 323 321 320 318 322 321 318 318
320 320 320 320 320 320 319 319 321 323 323 322 321 324 324 323 323 323 323 324 324 325 326 325 328 328 328 328 328 329 328 327 326 324 326 329 328 326 328 327 325 324 323 325 324 322 321 320 319
320 319 326 325 326 324 324 323 322 322 322 321 321 324 324 323 322 322 323 323 323 324 324 325 326 329 332 328 329 328 322 321 322 325 325 328 328 325 326 327 322 321 318 322 324 324 324 323 321
318 319 328 328 330 330 322 323 321 321 321 322 323 325 324 322 321 321 321 322 321 322 322 326 324 325 326 327 325 321 320 322 324 324 323 326 327 326 324 325 320 320 324 324 325 324 324 324 323
319 319 319 321 320 322 325 324 322 321 321 322 324 324 323 322 321 321 320 320 321 322 321 324 325 325 326 326 326 326 321 323 322 322 324 322 322 323 322 326 322 318 321 322 322 323 323 324 323
318 319 319 319 324 326 323 319 322 322 322 322 322 324 324 322 321 320 320 320 320 320 320 321 324 324 324 324 326 325 327 325 324 324 322 322 322 323 324 325 325 323 319 319 318 316 321 322 322
317 319 319 319 320 322 323 321 319 321 321 321 321 324 323 322 321 320 319 319 320 320 320 320 321 322 323 324 324 324 325 324 325 324 323 323 324 324 323 324 325 321 319 319 316 314 315 316 319
316 317 318 321 322 319 319 318 317 320 319 320 321 323 324 322 320 319 318 318 319 319 319 320 320 322 322 322 322 324 324 323 323 323 323 324 323 323 322 321 321 321 321 319 319 319 317 314 313
Wind_Speed
3 2 10 8 3 3 7 2 7 3 1 9 5 6 7 20 6 2 4 5 9 11 12 15 12 11 11 10 9 8 7 8 7 6 8 10 10 10 9 10 10 11 12 13 12 13 14 17 19
4 2 4 6 3 5 5 8 5 6 7 4 10 7 7 9 11 10 5 2 12 15 14 14 13 11 10 10 9 7 8 8 7 7 7 10 13 9 9 10 11 12 12 12 11 12 12 14 18
2 1 8 4 4 7 4 7 8 5 1 5 5 1 5 5 11 6 6 2 11 18 13 13 14 13 11 10 10 8 7 7 6 6 6 9 14 11 9 9 9 10 10 10 10 8 10 14 19
4 4 7 3 11 8 1 7 10 4 4 2 5 5 9 8 6 6 6 3 14 17 14 10 14 13 12 11 10 9 9 8 5 5 5 8 13 13 9 8 7 8 7 7 6 8 12 17 20
3 6 4 6 11 11 4 10 6 6 5 4 8 8 14 10 7 6 5 7 11 13 13 8 14 16 14 13 11 10 11 11 7 5 3 7 12 13 11 9 7 7 8 9 9 12 17 20 19
5 4 4 6 11 4 5 7 1 5 10 5 1 12 10 10 8 8 7 6 8 11 14 12 14 16 17 16 14 13 13 13 10 7 4 6 12 11 11 11 9 8 9 9 11 14 18 20 20
3 3 7 13 7 3 3 4 2 5 3 4 6 5 9 11 5 7 3 9 9 7 14 14 11 15 19 18 17 15 14 14 13 10 7 8 14 12 11 11 10 10 10 11 13 15 17 18 20
2 1 6 7 5 5 5 4 3 5 5 3 2 3 5 5 1 6 3 3 12 12 6 12 12 12 20 20 18 17 16 16 16 13 10 8 14 13 11 11 10 11 11 11 11 13 16 19 21
1 2 5 8 1 3 10 0 7 2 7 5 3 5 4 4 6 1 2 7 2 12 8 7 12 12 15 19 20 19 20 19 19 15 12 10 10 17 11 9 10 11 12 11 12 11 16 19 17
4 3 6 6 8 4 2 2 10 3 9 12 11 8 4 5 2 6 8 6 6 6 15 14 14 16 16 18 19 20 22 24 22 19 13 10 5 11 11 11 11 13 12 11 11 13 16 16 14
6 4 8 7 4 7 9 7 8 9 7 11 7 5 1 2 3 3 5 2 5 9 12 11 17 13 16 17 21 21 22 26 21 23 21 17 16 14 10 13 13 12 13 13 15 16 13 8 12
5 13 13 9 1 6 7 11 12 11 13 12 3 3 5 6 6 3 4 5 7 7 8 12 13 18 18 18 19 18 20 20 19 24 26 15 10 13 13 13 14 15 13 14 17 13 9 11 12
9 10 17 8 8 10 11 12 12 18 17 13 7 8 9 9 7 6 6 7 9 10 9 12 11 13 16 18 18 17 16 21 17 19 19 13 13 11 4 18 15 17 14 12 17 12 15 15 13
6 9 12 12 12 14 13 13 17 16 15 16 11 12 12 11 8 8 9 10 11 10 10 15 15 15 15 14 16 15 14 12 17 20 14 12 12 21 19 12 19 20 18 18 18 13 16 14 15
12 10 10 15 18 11 12 8 15 28 19 17 13 16 14 11 8 12 13 14 14 15 14 11 15 20 19 20 17 15 15 12 13 19 21 21 14 4 11 22 16 14 23 24 19 21 19 21 22
9 10 10 8 14 5 7 9 15 11 18 12 13 19 18 18 14 14 15 17 21 21 18 17 17 20 17 19 19 20 18 16 15 17 19 25 25 20 23 23 22 18 21 20 19 24 24 23 23
10 7 9 7 10 5 7 7 10 4 7 11 14 17 17 13 8 13 11 12 13 20 24 24 19 16 19 15 17 18 18 20 19 19 20 21 28 32 29 24 27 26 18 20 21 23 25 24 23
9 8 8 5 8 7 8 12 10 20 18 18 12 14 13 7 9 14 17 21 24 22 19 25 27 18 17 14 19 18 19 18 18 19 21 21 22 34 32 28 27 27 21 23 26 26 26 25 24
14 13 9 10 10 5 6 11 14 18 15 11 14 11 6 7 10 13 18 14 15 12 18 21 21 20 17 16 22 18 16 15 15 21 18 19 22 25 31 33 31 30 28 26 23 28 28 27 22
8 11 11 11 12 1 7 13 14 12 7 11 4 4 4 4 8 12 15 12 12 8 8 16 16 21 18 20 21 17 15 13 17 17 16 20 24 28 37 35 33 34 32 27 25 28 28 27 24
11 13 12 13 10 6 11 17 14 9 10 10 6 5 3 5 5 9 11 12 8 8 8 7 4 10 16 20 17 16 17 14 12 11 11 12 18 30 41 37 37 35 33 30 26 27 29 30 27
12 10 9 12 4 4 4 6 11 4 7 8 12 11 9 5 3 5 8 10 10 6 6 4 9 14 15 15 18 16 14 14 11 9 11 17 18 34 41 41 37 35 30 31 27 26 29 28 26
11 3 5 5 6 9 10 5 5 10 8 10 11 14 11 6 3 3 7 9 9 7 5 5 10 14 12 14 15 13 16 12 4 6 10 18 24 36 43 39 32 29 31 31 28 30 27 25 25
4 4 6 6 4 5 14 11 6 7 9 12 12 15 14 9 5 4 6 8 8 9 9 5 12 15 13 16 15 13 8 6 8 8 11 23 25 31 33 31 30 29 31 29 29 27 25 21 23
6 5 2 3 3 5 6 2 6 5 6 11 11 20 15 11 7 5 7 6 8 9 9 10 8 12 12 15 16 12 7 2 7 10 14 27 36 28 28 29 30 26 23 25 24 22 21 16 17
11 8 5 5 2 3 2 5 4 10 13 16 18 21 17 12 9 6 6 5 7 12 12 8 5 8 8 10 14 12 8 5 3 13 11 34 32 26 27 24 28 30 30 28 24 21 19 20 13
9 9 9 4 5 3 5 6 1 10 9 11 14 20 18 14 10 8 6 5 5 7 11 10 8 8 8 6 5 7 6 2 4 3 5 19 22 21 26 22 23 28 30 27 25 25 23 22 19
15 6 3 4 3 5 7 8 5 11 13 12 11 17 19 15 13 10 8 5 5 6 7 9 9 9 7 7 7 9 9 10 9 7 14 13 16 17 15 19 17 28 30 27 26 24 25 26 25
7 6 7 6 5 3 4 0 6 12 16 16 12 20 24 19 16 13 11 8 7 7 8 9 10 10 8 7 8 8 9 10 16 8 15 15 14 12 13 19 23 28 32 30 27 26 24 20 21
15 11 14 4 6 5 2 5 4 10 9 18 18 22 23 21 18 15 14 11 8 8 9 11 11 11 11 11 11 12 11 11 15 14 15 13 13 10 9 16 20 22 28 33 31 25 25 24 24
Wind_Direction
250 357 338 302 267 215 266 170 49 156 162 39 314 301 358 52 20 62 85 118 142 196 197 184 180 178 174 173 170 171 169 158 147 134 135 142 132 131 130 125 116 117 114 107 102 92 88 90 96
260 49 295 275 245 242 256 114 163 68 24 330 275 265 229 76 71 90 109 25 152 191 201 196 184 184 181 176 176 175 159 149 132 131 134 146 140 138 132 127 119 113 111 110 106 95 82 92 101
208 81 275 199 226 251 13 56 77 69 218 282 302 185 8 33 56 68 14 351 176 197 207 206 191 190 185 184 179 178 170 160 140 138 139 152 154 151 149 132 124 117 111 110 108 89 82 101 108
83 239 260 278 269 274 356 91 55 289 210 150 342 282 84 69 79 52 9 86 152 191 201 216 197 198 194 186 184 180 171 195 183 152 154 158 163 155 158 153 133 120 119 122 106 95 102 113 113
197 262 240 226 246 262 81 69 43 296 326 311 35 288 108 83 87 90 46 123 152 189 215 220 207 206 200 198 191 192 187 194 196 180 160 166 163 162 162 163 148 129 122 119 111 114 115 118 112
246 260 271 247 242 196 56 89 140 309 310 290 350 291 95 102 99 61 110 129 163 192 228 240 230 218 213 210 206 201 202 196 201 193 188 179 149 152 164 166 152 144 133 128 124 122 120 120 112
250 282 268 288 313 350 152 87 301 249 357 338 52 325 100 88 79 89 125 164 168 186 217 248 239 237 219 217 214 211 206 199 202 199 189 177 155 162 162 163 156 149 140 131 131 131 126 121 109
309 291 278 268 268 300 91 91 335 348 277 51 117 244 90 87 83 129 202 202 177 178 258 223 233 232 229 222 219 215 215 205 203 202 192 183 165 167 165 163 165 156 151 143 138 137 129 123 115
242 281 266 283 146 314 103 189 193 205 285 256 206 282 72 35 346 332 177 306 305 197 188 209 239 240 233 228 229 223 218 212 200 198 194 174 169 171 174 171 171 168 162 155 148 137 133 125 116
224 225 277 31 356 327 354 248 297 208 253 232 223 237 253 331 300 261 231 213 299 286 233 220 238 259 241 234 229 224 223 214 197 192 201 178 154 157 179 185 181 168 166 161 148 137 133 129 117
214 238 303 323 325 307 299 279 249 269 267 284 287 144 103 290 252 257 260 293 261 270 287 250 241 245 244 241 241 233 221 221 206 201 181 175 152 184 197 201 193 180 172 151 147 127 119 116 132
252 266 258 289 259 269 257 270 277 239 251 282 261 234 229 236 243 215 246 253 247 245 244 282 267 240 242 242 243 238 226 229 224 201 191 174 158 175 190 196 205 185 163 154 148 126 116 144 124
226 260 275 247 240 243 267 274 280 280 268 242 217 235 233 237 248 250 256 249 256 265 261 255 257 267 246 239 237 242 233 231 224 219 174 211 262 269 241 182 193 181 154 142 144 167 173 151 133
287 307 297 268 240 238 252 263 257 251 249 256 214 235 247 242 249 258 265 269 261 263 265 279 277 239 255 234 234 238 236 233 216 209 206 168 196 227 246 291 188 190 168 162 170 150 134 137 149
257 280 267 247 236 236 253 269 252 256 251 260 216 233 246 242 257 267 269 269 270 264 260 266 262 262 237 237 233 224 222 229 212 214 211 201 215 282 250 247 201 157 164 176 166 154 159 158 152
261 253 258 284 203 175 134 273 277 308 206 222 237 251 232 233 241 259 270 273 267 264 259 259 266 265 257 235 225 211 220 232 226 227 230 223 223 215 226 242 208 172 199 194 185 165 163 159 156
216 255 258 208 166 172 177 258 306 266 217 245 252 255 256 245 266 286 295 292 289 269 259 258 254 259 255 239 224 220 204 207 221 236 234 228 228 226 233 229 207 195 191 181 162 157 165 154 147
259 229 244 242 186 191 235 263 266 273 227 219 245 262 266 299 324 317 307 290 278 272 274 258 252 241 243 236 213 214 211 221 224 225 239 240 230 228 231 210 199 179 172 166 154 157 155 159 160
275 292 294 298 292 217 251 267 268 260 256 197 216 238 280 350 333 310 303 302 308 292 271 264 261 231 231 217 208 204 209 218 210 233 245 241 230 221 216 204 194 174 172 173 169 163 164 167 159
290 280 271 275 275 348 285 273 267 261 235 229 169 118 29 342 337 332 340 308 293 298 283 257 258 219 211 219 205 204 211 224 227 241 247 241 232 218 203 199 197 180 180 171 169 169 168 167 168
259 259 272 282 308 299 290 273 269 223 206 105 115 130 126 81 8 347 344 350 335 300 269 242 229 193 201 211 196 195 204 213 242 256 266 254 231 215 199 198 195 186 185 178 174 179 174 166 172
248 255 288 261 305 261 0 288 304 143 150 143 185 169 118 91 38 358 3 7 14 24 19 214 184 186 198 194 192 201 219 223 256 245 226 244 238 200 195 196 195 183 181 176 179 185 185 179 170
257 12 296 298 275 291 265 266 278 157 174 168 194 131 131 131 108 48 33 28 29 48 58 83 154 158 184 194 185 208 227 235 226 240 236 229 208 193 189 181 179 180 177 184 190 186 188 183 171
287 155 244 260 259 258 250 218 256 187 182 174 136 146 142 149 129 91 61 48 60 62 57 120 141 150 153 171 192 211 226 218 234 225 219 219 206 175 165 171 170 177 176 184 192 183 194 185 182
177 162 278 244 196 236 13 287 216 102 96 137 143 143 150 156 146 130 98 78 78 81 77 76 137 165 160 175 193 186 158 38 286 210 202 206 184 180 171 176 176 182 171 188 189 176 183 185 191
198 200 171 206 251 311 116 244 253 106 101 116 146 146 151 152 154 144 135 111 84 77 87 102 121 97 138 154 162 165 141 45 183 172 181 189 200 167 175 171 172 168 170 178 175 177 185 184 201
179 220 233 294 304 314 232 239 158 132 133 136 147 142 159 162 160 162 145 139 112 89 78 88 116 122 132 148 173 203 211 109 126 179 194 165 157 164 181 182 181 179 183 182 184 186 187 186 192
239 156 138 239 205 230 242 211 204 177 172 166 173 168 165 160 163 161 160 150 134 118 100 94 100 111 117 130 141 168 177 191 201 204 159 152 147 159 171 179 195 197 189 192 192 192 192 195 198
202 214 232 169 209 225 311 160 338 185 178 171 176 180 164 167 166 158 168 157 140 130 125 112 105 105 111 119 134 134 141 167 181 163 166 175 161 174 185 196 200 192 197 202 202 198 192 195 197
204 208 210 176 212 212 307 284 326 145 171 162 173 176 168 170 172 163 158 154 150 142 133 127 123 123 112 112 120 125 128 139 150 147 148 153 151 159 177 194 198 198 206 207 210 213 210 207 209